Portada
METAR-TAF:

METAR-TAF

Aeroports :

Puerto Francisco de Orellana, Equador

latitud: 00-27-46S, longitud: 076-59-12W, altitud: 254 m

Observació

L'informe es va fer fa 41 minuts, a les 21:00 UTC
Vent 2 kt del Nord/Nord-Oest
Temperatura 29°C
Humitat 70%
Pressió 1006 hPa
Visibilitat 10 km o més
Escasses núvols a una alçada de 2500 ft
Cel ennuvolat a una alçada de 10000 ft

METAR: SECO 012100Z 34002KT 9999 FEW025 BKN100 29/23 Q1006 RMK A2973

Hora: 16:41 (21:41 UTC)


TAF: manca

Observacions i pronòstics meteorològics de més de 4000 aeroports (METAR i TAF).

Les estacions disponibles són els punts grocs i vermells al mapa.

Posi el ratolí al punt desitjat per veure el nom de l'estació.

Feu clic per veure les observacions i els pronòstics meteorològics.

Per canviar el mapa: feu clic els botons verds amb una creu de color negre per apropar; al botó verd amb un guió per allunyar la imatge; o en les fletxes verdes per a mapes adjacents.


METAR-TAF: